2016-12-03 00:05:17 r, 15.07m,0000000083Hz,0000005591c,0000000.012s, 016.4C,00002195
2016-12-03 00:15:18 r, 15.10m,0000000080Hz,0000005710c,0000000.012s, 016.4C,00002195
2016-12-03 00:25:17 r, 15.15m,0000000076Hz,0000005984c,0000000.013s, 016.4C,00002195
2016-12-03 00:35:18 r, 15.23m,0000000071Hz,0000006429c,0000000.014s, 016.4C,00002195
2016-12-03 00:45:17 r, 15.30m,0000000067Hz,0000006848c,0000000.015s, 016.1C,00002195
2016-12-03 00:55:18 r, 15.20m,0000000074Hz,0000006258c,0000000.014s, 016.1C,00002195
2016-12-03 01:05:17 r, 15.18m,0000000075Hz,0000006146c,0000000.013s, 016.1C,00002195
2016-12-03 01:15:18 r, 15.11m,0000000080Hz,0000005732c,0000000.012s, 016.4C,00002195
2016-12-03 01:25:18 r, 15.07m,0000000082Hz,0000005567c,0000000.012s, 016.4C,00002195
2016-12-03 01:35:17 r, 15.00m,0000000087Hz,0000005244c,0000000.011s, 016.1C,00002195
2016-12-03 01:45:18 r, 14.99m,0000000088Hz,0000005166c,0000000.011s, 016.1C,00002195
2016-12-03 01:55:17 r, 15.11m,0000000080Hz,0000005732c,0000000.012s, 016.4C,00002195
2016-12-03 02:05:18 r, 15.09m,0000000081Hz,0000005646c,0000000.012s, 016.4C,00002195
2016-12-03 02:15:17 r, 15.03m,0000000085Hz,0000005366c,0000000.012s, 016.1C,00002195
2016-12-03 02:25:18 r, 15.09m,0000000081Hz,0000005647c,0000000.012s, 016.1C,00002195
2016-12-03 02:35:17 r, 15.11m,0000000080Hz,0000005735c,0000000.012s, 016.1C,00002195
2016-12-03 02:45:17 r, 15.24m,0000000071Hz,0000006473c,0000000.014s, 016.1C,00002195
2016-12-03 02:55:18 r, 15.11m,0000000080Hz,0000005783c,0000000.013s, 016.1C,00002195
2016-12-03 03:05:20 r, 14.93m,0000000093Hz,0000004901c,0000000.011s, 016.1C,00002195
2016-12-03 03:15:17 r, 15.10m,0000000081Hz,0000005687c,0000000.012s, 016.1C,00002195
2016-12-03 03:25:17 r, 15.08m,0000000082Hz,0000005629c,0000000.012s, 016.1C,00002195
2016-12-03 03:35:17 r, 15.02m,0000000086Hz,0000005319c,0000000.012s, 016.1C,00002195
2016-12-03 03:45:18 r, 14.89m,0000000097Hz,0000004733c,0000000.010s, 016.1C,00002195
2016-12-03 03:55:17 r, 14.88m,0000000099Hz,0000004675c,0000000.010s, 016.4C,00002195
2016-12-03 04:05:17 r, 14.93m,0000000094Hz,0000004898c,0000000.011s, 016.4C,00002195
2016-12-03 04:15:18 r, 14.88m,0000000098Hz,0000004677c,0000000.010s, 016.4C,00002195
2016-12-03 04:25:18 r, 14.85m,0000000101Hz,0000004569c,0000000.010s, 016.4C,00002195
2016-12-03 04:35:17 r, 14.80m,0000000106Hz,0000004327c,0000000.009s, 016.4C,00002195
2016-12-03 04:45:17 r, 14.57m,0000000132Hz,0000000000c,0000000.000s, 016.1C,00002195
2016-12-03 04:55:17 r, 14.60m,0000000128Hz,0000000000c,0000000.000s, 016.1C,00002195
2016-12-03 05:05:18 r, 14.87m,0000000099Hz,0000004635c,0000000.010s, 016.4C,00002195
2016-12-03 05:15:17 r, 15.07m,0000000083Hz,0000005571c,0000000.012s, 016.4C,00002195
2016-12-03 05:25:17 r, 15.11m,0000000079Hz,0000005788c,0000000.013s, 016.4C,00002195
2016-12-03 05:35:17 r, 15.29m,0000000068Hz,0000006814c,0000000.015s, 016.4C,00002195
2016-12-03 05:45:17 r, 15.16m,0000000077Hz,0000006041c,0000000.013s, 016.1C,00002195
2016-12-03 05:55:17 r, 15.13m,0000000078Hz,0000005870c,0000000.013s, 016.1C,00002195
2016-12-03 06:05:17 r, 15.17m,0000000077Hz,0000006066c,0000000.013s, 016.1C,00002195
2016-12-03 06:15:17 r, 15.33m,0000000065Hz,0000007094c,0000000.015s, 016.1C,00002195
2016-12-03 06:25:17 r, 15.27m,0000000069Hz,0000006702c,0000000.015s, 016.1C,00002195
2016-12-03 06:35:17 r, 15.22m,0000000072Hz,0000006343c,0000000.014s, 016.1C,00002195
2016-12-03 06:45:17 r, 15.12m,0000000078Hz,0000005837c,0000000.013s, 016.1C,00002195
2016-12-03 06:55:17 r, 15.24m,0000000071Hz,0000006474c,0000000.014s, 016.1C,00002195
2016-12-03 07:05:17 r, 15.14m,0000000078Hz,0000005942c,0000000.013s, 016.1C,00002195
2016-12-03 07:15:17 r, 14.71m,0000000115Hz,0000003969c,0000000.009s, 016.1C,00002195
2016-12-03 07:25:19 r, 13.64m,0000000311Hz,0000000000c,0000000.000s, 016.1C,00002195
2016-12-03 07:35:17 r, 12.21m,0000001165Hz,0000000000c,0000000.000s, 016.1C,00002195
2016-12-03 07:45:17 r, 10.57m,0000005284Hz,0000000000c,0000000.000s, 016.1C,00002195
2016-12-03 07:55:17 r, 08.89m,0000024706Hz,0000000000c,0000000.000s, 016.1C,00002195
2016-12-03 08:05:17 r, 08.14m,0000049526Hz,0000000000c,0000000.000s, 015.7C,00002195
2016-12-03 08:15:17 r, 07.01m,0000141104Hz,0000000000c,0000000.000s, 015.7C,00002195
2016-12-03 08:25:18 r, 06.40m,0000245394Hz,0000000000c,0000000.000s, 015.7C,00002195
2016-12-03 08:35:17 r, 06.04m,0000342187Hz,0000000000c,0000000.000s, 015.7C,00002195
2016-12-03 08:45:20 r, 00.00m,0000449668Hz,0000000000c,0000000.000s, 015.7C,00002195
2016-12-03 08:55:18 r, 00.00m,0000458328Hz,0000000000c,0000000.000s, 015.7C,00002195
2016-12-03 09:05:17 r, 00.00m,0000548520Hz,0000000000c,0000000.000s, 016.1C,00002195
2016-12-03 09:15:18 r, 00.00m,0000563104Hz,0000000000c,0000000.000s, 016.1C,00002195
2016-12-03 09:25:17 r, 00.00m,0000563007Hz,0000000000c,0000000.000s, 016.1C,00002195
2016-12-03 09:35:17 r, 00.00m,0000563026Hz,0000000000c,0000000.000s, 016.4C,00002195
2016-12-03 09:45:17 r, 00.00m,0000563129Hz,0000000000c,0000000.000s, 016.4C,00002195
2016-12-03 09:55:17 r, 00.00m,0000563053Hz,0000000000c,0000000.000s, 016.4C,00002195
2016-12-03 10:05:18 r, 00.00m,0000563155Hz,0000000000c,0000000.000s, 016.4C,00002195
2016-12-03 10:15:18 r, 00.00m,0000563137Hz,0000000000c,0000000.000s, 016.7C,00002195
2016-12-03 10:25:18 r, 00.00m,0000563163Hz,0000000000c,0000000.000s, 016.7C,00002195
2016-12-03 10:35:17 r, 00.00m,0000563208Hz,0000000000c,0000000.000s, 016.7C,00002195
2016-12-03 10:45:17 r, 00.00m,0000563283Hz,0000000000c,0000000.000s, 016.4C,00002195
2016-12-03 10:55:17 r, 00.00m,0000563169Hz,0000000000c,0000000.000s, 016.7C,00002195
2016-12-03 11:05:17 r, 00.00m,0000563207Hz,0000000000c,0000000.000s, 016.7C,00002195
2016-12-03 11:15:18 r, 00.00m,0000563256Hz,0000000000c,0000000.000s, 016.7C,00002195
2016-12-03 11:25:17 r, 00.00m,0000563158Hz,0000000000c,0000000.000s, 016.7C,00002195
2016-12-03 11:35:17 r, 00.00m,0000563194Hz,0000000000c,0000000.000s, 017.0C,00002195
2016-12-03 11:45:17 r, 00.00m,0000563241Hz,0000000000c,0000000.000s, 017.0C,00002195
2016-12-03 11:55:17 r, 00.00m,0000563218Hz,0000000000c,0000000.000s, 017.0C,00002195
2016-12-03 12:05:17 r, 00.00m,0000563285Hz,0000000000c,0000000.000s, 017.4C,00002195
2016-12-03 12:15:17 r, 00.00m,0000563209Hz,0000000000c,0000000.000s, 017.4C,00002195
2016-12-03 12:25:17 r, 00.00m,0000563316Hz,0000000000c,0000000.000s, 017.4C,00002195
2016-12-03 12:35:17 r, 00.00m,0000563276Hz,0000000000c,0000000.000s, 017.4C,00002195
2016-12-03 12:45:17 r, 00.00m,0000563244Hz,0000000000c,0000000.000s, 017.4C,00002195
2016-12-03 12:55:17 r, 00.00m,0000563325Hz,0000000000c,0000000.000s, 017.4C,00002195
2016-12-03 13:05:18 r, 00.00m,0000563235Hz,0000000000c,0000000.000s, 017.4C,00002195
2016-12-03 13:15:18 r, 00.00m,0000563254Hz,0000000000c,0000000.000s, 017.0C,00002195
2016-12-03 13:25:18 r, 00.00m,0000563359Hz,0000000000c,0000000.000s, 017.4C,00002195
2016-12-03 13:35:18 r, 00.00m,0000563293Hz,0000000000c,0000000.000s, 017.4C,00002195
2016-12-03 13:45:17 r, 00.00m,0000563329Hz,0000000000c,0000000.000s, 017.4C,00002195
2016-12-03 13:55:17 r, 00.00m,0000563263Hz,0000000000c,0000000.000s, 017.4C,00002195
2016-12-03 14:05:18 r, 00.00m,0000563238Hz,0000000000c,0000000.000s, 017.4C,00002195
2016-12-03 14:15:17 r, 00.00m,0000563314Hz,0000000000c,0000000.000s, 017.4C,00002195
2016-12-03 14:25:17 r, 00.00m,0000563271Hz,0000000000c,0000000.000s, 017.0C,00002195
2016-12-03 14:35:17 r, 00.00m,0000563192Hz,0000000000c,0000000.000s, 017.4C,00002195
2016-12-03 14:45:19 r, 00.00m,0000563144Hz,0000000000c,0000000.000s, 017.0C,00002195
2016-12-03 14:55:17 r, 00.00m,0000563203Hz,0000000000c,0000000.000s, 016.7C,00002195
2016-12-03 15:05:18 r, 00.00m,0000563179Hz,0000000000c,0000000.000s, 016.7C,00002195
2016-12-03 15:15:17 r, 00.00m,0000563154Hz,0000000000c,0000000.000s, 016.7C,00002195
2016-12-03 15:25:18 r, 00.00m,0000563156Hz,0000000000c,0000000.000s, 016.4C,00002195
2016-12-03 15:35:18 r, 00.00m,0000541100Hz,0000000000c,0000000.000s, 016.4C,00002195
2016-12-03 15:45:18 r, 00.00m,0000400268Hz,0000000000c,0000000.000s, 016.4C,00002195
2016-12-03 15:55:17 r, 06.18m,0000301839Hz,0000000000c,0000000.000s, 016.4C,00002195
2016-12-03 16:05:17 r, 06.55m,0000213438Hz,0000000000c,0000000.000s, 016.1C,00002195
2016-12-03 16:15:17 r, 06.97m,0000146287Hz,0000000000c,0000000.000s, 016.1C,00002195
2016-12-03 16:25:18 r, 07.62m,0000080383Hz,0000000000c,0000000.000s, 016.1C,00002195
2016-12-03 16:35:17 r, 08.38m,0000039551Hz,0000000000c,0000000.000s, 016.1C,00002195
2016-12-03 16:45:17 r, 09.60m,0000012884Hz,0000000000c,0000000.000s, 016.1C,00002195
2016-12-03 16:55:18 r, 11.04m,0000003437Hz,0000000000c,0000000.000s, 015.7C,00002195
2016-12-03 17:05:17 r, 12.69m,0000000746Hz,0000000000c,0000000.000s, 015.7C,00002195
2016-12-03 17:15:17 r, 14.14m,0000000196Hz,0000000000c,0000000.000s, 015.7C,00002195
2016-12-03 17:25:17 r, 14.82m,0000000103Hz,0000004417c,0000000.010s, 015.7C,00002195
2016-12-03 17:35:17 r, 14.90m,0000000096Hz,0000004756c,0000000.010s, 015.7C,00002195
2016-12-03 17:45:17 r, 15.09m,0000000081Hz,0000005648c,0000000.012s, 015.7C,00002195
2016-12-03 17:55:17 r, 14.97m,0000000091Hz,0000005076c,0000000.011s, 015.7C,00002195
2016-12-03 18:05:17 r, 15.12m,0000000079Hz,0000005814c,0000000.013s, 015.7C,00002195
2016-12-03 18:15:17 r, 15.09m,0000000082Hz,0000005651c,0000000.012s, 015.7C,00002195
2016-12-03 18:25:17 r, 15.12m,0000000080Hz,0000005818c,0000000.013s, 015.7C,00002195
2016-12-03 18:35:17 r, 15.13m,0000000079Hz,0000005884c,0000000.013s, 015.7C,00002195
2016-12-03 18:45:17 r, 15.02m,0000000086Hz,0000005301c,0000000.012s, 015.4C,00002195
2016-12-03 18:55:17 r, 15.26m,0000000069Hz,0000006607c,0000000.014s, 015.7C,00002195
2016-12-03 19:05:18 r, 15.49m,0000000056Hz,0000008164c,0000000.018s, 015.7C,00002195
2016-12-03 19:15:17 r, 15.58m,0000000051Hz,0000008930c,0000000.019s, 015.7C,00002195
2016-12-03 19:25:17 r, 15.96m,0000000037Hz,0000012602c,0000000.027s, 015.4C,00002195
2016-12-03 19:35:17 r, 15.50m,0000000055Hz,0000008227c,0000000.018s, 015.4C,00002195
2016-12-03 19:45:18 r, 15.41m,0000000060Hz,0000007614c,0000000.017s, 015.4C,00002195
2016-12-03 19:55:17 r, 15.27m,0000000069Hz,0000006660c,0000000.014s, 015.4C,00002195
2016-12-03 20:05:18 r, 16.15m,0000000030Hz,0000014979c,0000000.033s, 015.4C,00002195
2016-12-03 20:15:17 r, 15.96m,0000000036Hz,0000012649c,0000000.027s, 015.4C,00002195
2016-12-03 20:25:19 r, 15.36m,0000000063Hz,0000007257c,0000000.016s, 015.4C,00002195
2016-12-03 20:35:17 r, 15.28m,0000000068Hz,0000006757c,0000000.015s, 015.4C,00002195
2016-12-03 20:45:17 r, 14.65m,0000000122Hz,0000003773c,0000000.008s, 015.4C,00002195
2016-12-03 20:55:17 r, 14.72m,0000000116Hz,0000004006c,0000000.009s, 015.4C,00002195
2016-12-03 21:05:17 r, 14.22m,0000000182Hz,0000000000c,0000000.000s, 015.4C,00002195
2016-12-03 21:15:17 r, 14.42m,0000000152Hz,0000000000c,0000000.000s, 015.4C,00002195
2016-12-03 21:25:18 r, 14.36m,0000000161Hz,0000000000c,0000000.000s, 015.4C,00002195
2016-12-03 21:35:17 r, 14.51m,0000000140Hz,0000000000c,0000000.000s, 015.4C,00002195
2016-12-03 21:45:18 r, 14.46m,0000000147Hz,0000000000c,0000000.000s, 015.4C,00002195
2016-12-03 21:55:17 r, 14.41m,0000000154Hz,0000000000c,0000000.000s, 015.4C,00002195
2016-12-03 22:05:17 r, 14.13m,0000000197Hz,0000000000c,0000000.000s, 015.4C,00002195
2016-12-03 22:15:17 r, 14.10m,0000000203Hz,0000000000c,0000000.000s, 015.7C,00002195
2016-12-03 22:25:17 r, 14.27m,0000000174Hz,0000000000c,0000000.000s, 015.7C,00002195
2016-12-03 22:35:17 r, 14.29m,0000000171Hz,0000000000c,0000000.000s, 015.7C,00002195
2016-12-03 22:45:17 r, 14.18m,0000000188Hz,0000000000c,0000000.000s, 015.7C,00002195
2016-12-03 22:55:18 r, 14.23m,0000000181Hz,0000000000c,0000000.000s, 015.7C,00002195
2016-12-03 23:05:18 r, 14.16m,0000000193Hz,0000000000c,0000000.000s, 015.7C,00002195
2016-12-03 23:15:18 r, 14.15m,0000000195Hz,0000000000c,0000000.000s, 015.7C,00002195
2016-12-03 23:25:18 r, 14.20m,0000000185Hz,0000000000c,0000000.000s, 015.7C,00002195
2016-12-03 23:35:17 r, 14.27m,0000000174Hz,0000000000c,0000000.000s, 015.7C,00002195
2016-12-03 23:45:17 r, 14.21m,0000000183Hz,0000000000c,0000000.000s, 015.7C,00002195
2016-12-03 23:55:17 r, 14.20m,0000000186Hz,0000000000c,0000000.000s, 015.7C,00002195
